Find Starlink 3342

NORAD ID: 50816 Int'l Des: 2022-001 Owner: SPXS Country: US Constellation: starlink operational
LEOCIRCULAR

Live Position

Loading 3D Globe...

About Starlink 3342

Description loading...

Upcoming Passes

Passes for default location (London). Set your location on the main map for personalized predictions.

Altitude History

Loading altitude history...

Two-Line Element Set

1 50816U 22001P 26121.20199616 .00034437 00000-0 17966-2 0 9993
2 50816 53.2127 289.7273 0001190 44.7099 315.3992 15.15658654238386
Epoch: May 1, 2026 • Age: 8 hours

Current Status

Altitude 538.0 km
Velocity 7.59 km/s
Sub-Earth Point -53.19°S, 159.61°E
Launch Date Jan 6, 2022
Age 4.3 years
Type internet

Technical Details

Classification Payload
Mass 297.00 kg
Dry Mass 275.00 kg
Total Mass 297.00 kg
Length 0.20 m
Diameter 2.80 m
Span 9.00 m
Shape Box + pan
Manufacturer SPXS
Bus Type Starlink
Phase Status In Orbit
Owner/State SPXS/US

Most Searched